Location: Altenhof
(50.2418°N, 10.8789°E)
Time: 15:26:33
(UTC+00:00)

Cosmos 2369 Rocket - Pass Details

Date: 18 February 2020
Orbit: 827 x 854 km, 71.0° (Epoch: 07 April)

Event Time Altitude Azimuth Distance (km) Brightness Sun altitude
Exits shadow 02:53:27 17° 352° (N) 2,042 4.3 -33.6°
Maximum altitude 02:57:06 32° 46° (NE) 1,426 3.8 -33.1°
Drops below altitude 10° 03:02:12 10° 109° (ESE) 2,485 5.2 -32.4°
Sets 03:04:54 0° 119° (ESE) 3,417 5.8 -32.0°
